Weather in Zavidnoye

Russia / Ryazan Oblast     53°57′44″N   42°03′40″E
temp.,
°C
wind,
m/s
gust,
m/s
humid.,
%
clouds,
%
prec.,
mm/h
press.,
hPa
HPBL,
m
4 august, wed
wed400:00+17nw24919 0.5 101284
03:00+16nw2288100 0.5 101327
06:00+16nnw2688100 0.0 1013152
09:00+21nnw3561100 0.0 1014582
12:00+25nw353643 0.0 10152413
15:00+25wnw243893 0.0 10151990
18:00+20nw2556100 0.0 1015147
21:00+17n236332 0.0 101636
5 august, thu
thu500:00+16n126397 0.0 101717
03:00+15n116676 0.0 101711
06:00+16ne116625 0.0 101824
09:00+22ene00485 0.0 1018532
12:00+25w113891 0.0 10181844
15:00+26nnw123317 0.0 10172444
18:00+25e224341 0.0 1016236
21:00+20ese365249 0.0 101692
6 august, fri
fri600:00+18sse386030 0.0 1016134
03:00+17sse3116397 0.0 1015207
06:00+19s4125792 0.0 1016369
09:00+24s594239 0.0 1015674
12:00+27s46365 0.0 10141304
15:00+30s463096 0.0 10122363
18:00+27s4840100 0.0 1012348
21:00+22se4115439 0.0 1012207
7 august, sat
sat700:00+21sse4135277 0.0 1012291
03:00+22sse3124698 0.0 1012393
06:00+21sse41246100 0.0 1013357
09:00+23sse4104494 0.0 1014432
12:00+32s572444 0.0 10131544
15:00+33sse552498 0.0 10122307
18:00+30se47355 0.0 1012423
21:00+23se3114735 0.0 1014186
8 august, sun
sun800:00+21se4114899 0.0 1014194
03:00+19se364963 0.0 101493
06:00+20se3848100 0.0 1014167
09:00+26sse4635100 0.0 1014355
12:00+32sse342496 0.0 1013997
15:00+33wsw3324100 0.0 10141756
18:00+27nnw4839100 0.0 1014284
21:00+24ne3545100 0.0 101497